Temp
8 8 8 8 7 7 7 7 7 6 6 6 6 6 6 6 6 6 6 6 6 6 7 7 7 7 7 8 8 7 7 7 8 8 8 8 7 8 8 8 8 8 8 8 9
7 8 8 7 7 7 7 7 7 6 6 6 6 6 6 6 6 6 6 6 6 6 7 7 7 7 7 7 8 7 8 8 8 7 7 8 8 8 8 8 9 8 8 9 9
7 7 7 7 7 7 7 7 6 6 5 5 6 6 6 6 6 6 6 6 6 6 7 7 7 7 8 8 8 8 8 7 8 7 7 8 8 8 8 9 8 9 9 9 9
7 7 7 7 7 7 7 6 6 6 5 5 5 6 6 6 6 6 6 6 6 6 6 6 7 7 7 7 7 8 8 7 8 8 8 8 8 9 9 8 8 8 9 9 9
7 7 7 7 7 7 7 6 6 6 5 5 5 6 6 6 6 6 6 6 6 6 6 6 7 7 7 7 7 8 8 8 8 8 8 8 8 8 9 8 8 8 8 9 9
7 7 7 7 7 7 6 6 5 5 5 5 5 5 6 6 6 6 6 6 6 6 6 6 7 7 7 7 7 8 8 8 8 7 8 8 8 9 8 8 8 9 9 10 10
7 7 7 7 7 7 6 6 5 5 5 5 5 5 5 6 6 6 6 6 6 6 6 6 7 7 7 7 7 7 8 8 8 8 8 9 10 9 8 9 9 9 9 9 10
7 6 7 7 7 6 6 5 5 4 5 5 5 5 6 6 6 6 6 6 6 6 6 7 7 7 7 7 7 7 7 8 8 8 8 8 10 9 8 8 9 9 9 9 9
6 6 6 6 6 6 6 5 4 4 5 5 5 5 5 6 6 6 6 6 6 7 7 7 7 7 7 7 7 7 7 7 8 7 7 7 9 9 8 8 8 9 9 9 9
6 6 6 6 6 6 5 4 4 4 4 5 5 5 6 6 6 6 6 6 7 7 6 6 7 7 7 6 7 6 6 7 7 7 7 8 9 8 9 8 8 8 8 8 8
6 6 6 5 5 5 4 4 4 4 5 5 5 6 6 6 6 6 6 6 7 6 6 6 7 7 6 6 6 6 6 6 7 7 7 8 8 9 9 8 8 7 7 8 8
6 5 6 5 5 5 5 4 4 5 5 5 6 5 6 6 6 6 6 6 7 6 6 6 7 7 6 6 6 6 6 7 7 7 7 8 8 8 8 8 8 7 7 7 7
5 5 5 5 5 5 4 4 4 5 5 6 6 6 6 6 6 6 6 6 6 6 6 6 7 6 6 6 6 6 6 6 6 7 7 7 7 7 8 7 7 7 7 7 6
5 5 5 5 5 5 5 5 4 5 5 7 7 6 6 6 6 6 6 5 6 6 6 7 7 7 6 6 6 6 6 6 6 6 6 6 6 7 7 7 7 7 7 6 6
5 5 5 5 5 5 5 5 5 5 3 7 6 6 7 6 6 6 6 6 6 6 6 6 6 6 6 6 6 6 6 6 6 6 5 6 5 7 7 7 7 7 6 6 5
5 5 4 5 4 4 4 4 4 4 4 6 6 6 6 6 6 6 6 5 6 6 6 7 6 6 6 6 6 6 6 6 6 6 3 5 5 7 7 8 7 6 5 5 5
4 4 4 4 4 4 4 4 4 4 6 6 6 6 6 6 6 6 6 6 6 6 7 7 7 7 6 6 6 6 6 6 4 3 3 5 5 7 7 7 6 5 5 4 4
4 4 4 4 4 3 3 3 3 5 6 6 6 6 6 6 6 6 6 6 6 6 6 6 6 6 6 6 6 6 5 5 4 2 2 6 5 6 6 6 5 4 4 3 4
4 4 4 3 3 3 3 2 4 5 5 6 6 6 6 6 5 5 6 6 6 6 6 6 6 6 6 6 6 5 5 5 4 3 1 4 5 5 5 5 4 4 3 4 3
4 4 3 3 3 3 2 3 4 5 5 5 6 6 6 6 5 5 6 6 6 6 6 6 6 6 6 5 5 5 5 4 4 2 1 3 4 6 5 4 4 3 4 4 3
3 3 3 3 2 2 2 3 4 5 5 5 5 5 6 6 6 6 6 6 6 6 6 5 5 5 5 5 5 5 4 4 4 4 0 -1 4 6 5 4 4 4 3 3 3
3 3 3 3 2 2 3 4 4 4 4 4 5 5 5 5 6 6 6 6 6 6 6 5 5 5 5 5 5 5 4 4 4 3 3 1 3 5 4 4 4 4 3 3 3
2 2 3 3 2 2 3 3 3 4 4 4 4 4 5 5 5 5 5 5 5 5 5 5 5 4 4 4 4 4 4 4 4 3 3 1 4 4 4 4 3 3 2 3 2
1 1 2 2 2 3 3 3 3 4 3 4 4 4 4 4 4 4 5 5 5 5 5 4 4 4 5 5 4 4 3 4 2 2 2 3 3 3 3 3 2 2 2 2 1
1 1 2 2 2 3 3 2 3 3 3 3 4 4 4 3 4 4 4 4 4 4 4 4 4 4 4 4 3 3 3 3 3 3 2 2 3 2 3 2 2 2 2 1 1
0 0 1 1 2 2 2 2 3 3 3 3 3 4 3 3 3 4 4 4 4 4 4 3 3 3 3 3 2 2 3 3 3 2 2 2 2 3 3 3 2 2 1 0 0
-0 0 1 1 1 2 2 3 3 2 2 3 3 2 2 3 3 3 3 3 3 3 3 3 3 2 2 2 1 1 4 3 3 2 2 2 3 2 2 1 0 0 -0 0 0
Height
3148 3148 3148 3148 3148 3150 3150 3152 3152 3154 3157 3161 3163 3164 3166 3168 3169 3170 3171 3172 3171 3171 3171 3170 3170 3170 3171 3171 3170 3171 3171 3170 3170 3170 3170 3169 3168 3168 3166 3165 3164 3162 3160 3159 3156
3145 3145 3146 3146 3147 3148 3149 3150 3152 3153 3156 3160 3162 3165 3165 3168 3169 3170 3171 3171 3171 3171 3171 3170 3169 3169 3170 3170 3170 3169 3169 3167 3168 3167 3167 3166 3165 3165 3163 3162 3161 3158 3155 3153 3153
3143 3143 3143 3144 3146 3146 3147 3149 3151 3152 3155 3159 3161 3164 3165 3167 3169 3169 3169 3170 3170 3170 3170 3169 3168 3168 3168 3168 3168 3167 3167 3167 3166 3165 3163 3162 3162 3161 3159 3158 3156 3154 3153 3151 3150
3141 3141 3141 3142 3144 3145 3146 3148 3150 3152 3154 3157 3160 3162 3164 3166 3169 3167 3168 3168 3169 3169 3169 3168 3167 3167 3166 3165 3165 3164 3165 3165 3164 3162 3160 3159 3158 3158 3157 3155 3153 3152 3149 3148 3146
3138 3139 3139 3140 3141 3143 3144 3146 3148 3151 3153 3156 3158 3161 3162 3164 3166 3166 3166 3167 3167 3167 3167 3167 3166 3165 3165 3164 3163 3161 3161 3161 3160 3159 3157 3156 3157 3155 3154 3153 3150 3149 3146 3144 3142
3136 3137 3137 3138 3139 3140 3142 3144 3147 3149 3152 3155 3157 3158 3160 3163 3163 3164 3165 3165 3164 3165 3165 3164 3164 3163 3162 3162 3160 3159 3158 3157 3158 3157 3155 3155 3154 3153 3153 3151 3149 3144 3142 3139 3138
3132 3134 3135 3134 3137 3138 3140 3141 3144 3147 3150 3153 3155 3156 3158 3161 3160 3161 3162 3163 3162 3163 3163 3162 3162 3162 3161 3160 3158 3157 3155 3155 3155 3154 3153 3151 3151 3151 3149 3148 3143 3141 3139 3136 3134
3130 3131 3132 3133 3135 3136 3138 3140 3141 3146 3148 3150 3153 3154 3155 3157 3158 3159 3160 3161 3160 3159 3160 3160 3159 3159 3158 3158 3156 3155 3154 3153 3153 3153 3151 3148 3146 3148 3146 3142 3141 3140 3138 3136 3133
3128 3129 3130 3131 3132 3134 3135 3138 3141 3143 3145 3148 3151 3151 3153 3154 3155 3156 3157 3158 3157 3157 3157 3157 3157 3157 3156 3155 3154 3153 3152 3151 3150 3150 3148 3146 3142 3145 3141 3139 3139 3138 3138 3136 3135
3127 3128 3129 3129 3131 3131 3134 3138 3140 3142 3142 3145 3147 3151 3150 3151 3152 3152 3153 3155 3155 3154 3156 3155 3154 3153 3153 3153 3152 3151 3150 3149 3147 3148 3144 3142 3139 3139 3136 3137 3137 3138 3138 3138 3137
3124 3124 3125 3128 3131 3129 3133 3137 3140 3140 3139 3142 3143 3146 3146 3148 3148 3149 3150 3151 3152 3153 3153 3153 3152 3151 3151 3151 3151 3149 3148 3146 3144 3143 3140 3139 3136 3134 3134 3135 3136 3137 3137 3138 3137
3121 3123 3124 3126 3128 3129 3131 3134 3135 3136 3137 3138 3138 3142 3143 3144 3145 3146 3148 3149 3148 3150 3150 3151 3148 3150 3148 3149 3149 3147 3146 3144 3141 3141 3140 3137 3133 3132 3133 3135 3135 3136 3137 3137 3136
3117 3119 3121 3125 3126 3128 3129 3131 3132 3134 3135 3135 3135 3136 3140 3143 3141 3143 3145 3145 3146 3146 3147 3147 3148 3147 3147 3148 3146 3146 3144 3142 3140 3138 3137 3136 3133 3133 3133 3134 3134 3135 3136 3136 3135
3114 3116 3119 3122 3125 3125 3127 3128 3132 3133 3134 3131 3130 3133 3134 3138 3137 3139 3140 3142 3142 3143 3143 3144 3144 3144 3144 3146 3145 3143 3142 3140 3138 3137 3137 3136 3134 3132 3132 3132 3134 3134 3134 3134 3133
3111 3113 3117 3120 3120 3122 3126 3128 3130 3133 3132 3127 3126 3128 3130 3133 3134 3134 3135 3137 3138 3140 3142 3143 3141 3142 3143 3144 3143 3142 3139 3138 3136 3134 3134 3133 3134 3129 3130 3130 3132 3132 3133 3132 3131
3107 3108 3113 3115 3118 3121 3123 3126 3130 3133 3126 3124 3124 3126 3127 3129 3131 3132 3131 3134 3137 3138 3137 3138 3139 3140 3141 3141 3140 3139 3138 3136 3133 3132 3132 3130 3132 3128 3128 3130 3130 3131 3131 3129 3128
3102 3106 3110 3111 3116 3118 3120 3124 3129 3126 3124 3123 3124 3124 3125 3128 3128 3130 3130 3132 3136 3137 3134 3134 3135 3137 3139 3140 3138 3137 3136 3135 3135 3134 3131 3129 3129 3126 3126 3127 3128 3130 3129 3127 3126
3098 3101 3105 3108 3112 3114 3117 3122 3123 3120 3121 3121 3122 3122 3124 3126 3127 3129 3129 3129 3133 3134 3133 3133 3134 3134 3136 3137 3137 3136 3135 3136 3136 3137 3131 3128 3125 3124 3124 3125 3126 3127 3125 3124 3122
3093 3097 3101 3105 3108 3110 3114 3116 3116 3116 3119 3120 3120 3121 3122 3124 3127 3128 3126 3128 3130 3131 3133 3131 3132 3133 3134 3135 3137 3134 3134 3136 3135 3134 3133 3126 3123 3123 3122 3123 3124 3123 3122 3120 3118
3089 3093 3097 3101 3104 3106 3110 3110 3112 3114 3115 3117 3118 3120 3120 3122 3125 3126 3125 3125 3126 3128 3129 3130 3131 3131 3130 3132 3133 3133 3134 3134 3134 3134 3132 3123 3119 3117 3120 3121 3120 3119 3118 3117 3114
3084 3089 3092 3095 3099 3102 3101 3105 3108 3111 3113 3116 3117 3118 3119 3120 3122 3123 3123 3124 3124 3126 3128 3128 3129 3129 3128 3128 3129 3130 3130 3131 3132 3131 3129 3128 3116 3114 3117 3117 3116 3115 3114 3112 3109
3079 3083 3087 3090 3094 3093 3096 3101 3105 3107 3110 3114 3115 3116 3117 3119 3120 3121 3121 3122 3123 3124 3125 3126 3125 3124 3125 3124 3125 3126 3126 3126 3126 3126 3124 3123 3115 3113 3114 3114 3114 3112 3111 3109 3106
3075 3079 3082 3085 3085 3089 3093 3096 3099 3103 3108 3111 3112 3114 3115 3117 3119 3117 3118 3119 3120 3122 3122 3123 3122 3121 3121 3122 3121 3121 3121 3121 3121 3120 3118 3120 3113 3111 3111 3111 3111 3109 3108 3105 3102
3071 3073 3076 3078 3080 3085 3089 3093 3096 3100 3103 3106 3107 3109 3112 3113 3114 3113 3115 3115 3116 3117 3118 3119 3118 3118 3119 3119 3119 3118 3117 3117 3117 3115 3112 3106 3107 3109 3108 3109 3107 3104 3102 3100 3097
3063 3066 3069 3070 3075 3081 3086 3088 3091 3093 3097 3100 3101 3104 3107 3108 3108 3109 3110 3111 3112 3113 3114 3116 3114 3114 3114 3114 3113 3111 3111 3112 3108 3107 3105 3099 3098 3101 3103 3100 3098 3098 3097 3095 3091
3057 3060 3065 3068 3073 3077 3079 3080 3085 3090 3092 3095 3097 3099 3102 3103 3104 3105 3106 3106 3107 3108 3109 3110 3110 3109 3107 3109 3107 3103 3100 3099 3097 3095 3092 3092 3089 3095 3094 3095 3095 3094 3091 3087 3084
3050 3055 3060 3063 3066 3070 3071 3077 3081 3085 3087 3090 3093 3093 3095 3099 3100 3100 3100 3102 3102 3104 3105 3106 3106 3105 3101 3102 3100 3094 3087 3083 3083 3083 3085 3085 3088 3088 3088 3088 3088 3087 3084 3081 3078
Wind_Speed
11 9 10 10 9 10 11 11 14 17 18 19 19 18 16 14 12 8 5 4 3 3 3 2 1 2 5 8 10 14 16 18 16 15 16 17 20 18 22 23 26 27 28 26 23
10 8 9 10 11 10 11 13 16 18 20 19 19 18 17 14 11 7 5 2 1 1 1 4 3 3 7 8 11 12 14 10 10 11 14 18 23 22 23 22 21 21 23 24 23
12 11 10 10 10 11 12 14 18 20 21 19 19 17 17 13 10 8 6 2 2 2 3 6 5 4 5 9 10 13 14 11 11 13 17 18 15 17 19 16 14 19 20 21 22
13 12 11 10 11 11 13 16 18 21 22 21 20 17 17 14 9 10 8 5 3 5 8 8 8 9 9 9 11 16 12 14 11 12 16 16 18 15 13 10 14 15 16 18 18
13 12 11 11 11 12 14 17 19 21 23 22 20 18 17 15 12 9 8 8 6 8 9 9 10 12 11 10 13 16 12 13 13 14 15 12 8 14 8 8 11 14 20 22 22
12 12 11 11 12 14 16 18 20 21 23 22 20 19 18 16 14 14 11 10 10 10 12 12 13 12 15 12 12 14 15 12 9 3 8 12 16 15 6 12 15 23 25 25 22
11 12 12 11 13 15 17 20 21 21 22 22 22 21 19 15 14 16 15 13 13 13 15 15 14 13 14 13 12 12 17 10 7 7 14 20 17 11 9 13 20 21 14 14 13
11 11 12 13 13 14 17 21 21 20 21 21 22 22 21 19 18 16 16 16 16 15 16 15 12 12 13 13 15 13 11 5 5 12 17 18 16 11 16 17 15 8 10 12 13
12 13 12 12 12 14 17 20 20 20 20 20 21 21 21 20 19 18 18 17 17 15 13 12 11 13 14 13 11 7 8 14 15 15 16 18 20 13 16 15 3 6 10 15 14
15 14 13 11 12 13 17 19 19 20 21 22 22 18 18 9 14 18 17 14 10 8 9 12 13 14 13 10 5 8 14 16 17 18 19 18 19 15 16 6 2 5 9 11 13
15 14 14 12 12 12 15 18 19 21 22 23 10 18 11 5 12 15 12 11 10 8 9 14 15 14 5 8 10 10 16 19 16 20 16 21 20 14 2 8 5 7 6 8 11
17 16 15 14 12 13 15 17 18 18 20 22 23 24 14 17 17 12 12 11 10 12 14 16 16 11 11 11 10 14 17 17 15 10 20 18 13 4 7 5 5 4 3 5 8
17 17 16 16 15 14 14 15 14 15 18 16 21 22 20 22 19 16 15 14 15 15 13 16 7 7 7 10 13 14 17 16 14 17 19 12 1 6 8 7 5 2 2 5 10
19 18 17 16 15 14 15 13 13 12 10 10 18 20 21 21 23 20 21 19 20 12 11 11 7 9 9 9 9 16 9 9 14 17 10 13 3 9 11 10 8 4 5 7 11
22 20 19 18 14 13 13 13 12 8 3 5 13 13 16 21 17 9 19 20 17 14 12 5 5 5 7 8 10 10 10 12 18 17 11 4 3 5 14 13 10 6 5 6 11
23 22 20 18 16 15 13 12 11 6 6 5 8 12 13 14 18 9 9 17 13 15 15 12 13 13 12 9 8 8 8 17 14 7 3 1 1 4 10 9 11 6 5 9 12
22 22 21 19 17 16 15 15 9 7 5 5 9 10 11 12 15 11 8 11 10 9 9 9 10 12 13 10 9 6 9 5 3 2 4 2 7 2 6 9 11 4 5 8 13
22 21 20 20 20 19 18 19 10 7 10 4 8 10 10 9 12 14 13 13 15 14 9 5 4 8 8 11 6 7 6 3 3 2 5 10 6 2 4 8 11 5 4 11 19
22 22 22 22 22 22 22 24 13 10 7 10 7 8 10 11 8 12 14 15 13 15 9 5 4 5 7 7 6 4 4 4 3 4 3 5 4 4 4 11 8 5 9 19 26
23 22 23 24 24 24 27 30 20 11 7 10 11 6 6 11 13 8 9 5 14 15 13 7 5 9 10 11 12 11 5 4 4 2 4 6 9 8 12 14 10 8 17 25 27
24 24 26 26 27 29 33 34 30 14 12 9 11 9 9 6 14 13 7 6 8 8 13 13 12 6 7 7 8 10 11 9 5 5 4 2 6 6 12 18 16 14 26 31 30
24 27 27 29 32 36 36 31 30 25 15 15 12 11 11 11 11 14 13 10 5 9 12 13 8 9 9 12 13 15 15 15 11 6 9 4 11 15 14 18 21 19 34 33 27
25 27 27 30 37 37 32 32 31 26 21 28 22 17 17 16 11 13 17 18 17 16 9 11 9 3 3 8 15 15 15 17 20 17 17 7 6 5 5 11 18 34 35 27 22
27 27 30 31 35 32 33 32 31 29 29 26 23 23 21 19 18 13 17 14 17 18 18 16 19 17 15 11 7 9 9 15 17 14 21 31 32 28 29 33 37 35 28 23 26
31 29 29 26 33 30 30 28 31 30 25 22 26 29 24 22 20 22 21 20 18 16 18 19 21 20 20 21 23 25 26 27 33 37 34 38 40 35 36 36 29 23 23 26 29
33 34 32 28 22 30 30 32 30 21 22 28 27 23 20 21 21 19 13 16 20 18 20 22 22 23 24 22 24 31 36 36 37 39 43 42 43 29 21 16 15 22 25 28 31
35 35 35 29 31 28 28 32 31 23 23 21 17 17 17 14 12 15 18 19 18 16 18 22 24 22 21 21 22 28 29 18 25 30 30 28 19 11 13 17 19 21 26 29 36
Wind_Direction
241 239 226 215 209 207 200 199 189 184 180 181 182 177 175 172 166 159 153 139 133 94 75 37 25 245 242 235 227 232 241 254 259 266 278 267 266 274 286 288 289 296 298 298 293
246 229 217 214 210 209 213 197 194 186 183 185 187 188 182 182 176 170 163 180 202 56 71 3 328 310 256 263 253 245 255 267 264 262 274 266 266 279 284 289 302 295 290 291 292
245 226 216 215 221 218 215 206 196 191 188 188 192 193 189 190 192 194 197 229 285 332 317 333 323 304 274 266 269 263 271 275 268 278 281 287 288 286 296 304 296 295 295 295 300
238 229 218 221 225 225 225 207 201 196 193 192 194 197 197 198 200 209 205 218 269 314 318 316 321 306 300 290 283 284 298 298 301 285 282 292 297 299 297 298 303 313 309 304 300
234 227 226 226 226 229 225 214 203 202 199 198 199 202 203 207 207 191 207 229 255 290 304 305 306 299 294 294 291 290 303 295 298 300 296 301 316 303 322 297 311 305 297 294 293
224 226 223 231 234 230 223 212 206 204 205 204 205 207 210 213 218 228 240 249 260 280 297 297 299 294 292 297 291 298 298 302 297 335 310 305 305 307 308 297 298 293 304 303 301
225 228 229 233 234 226 221 208 205 205 208 212 213 219 221 214 224 230 239 255 268 283 289 288 293 290 292 302 295 300 302 302 256 265 307 309 304 321 308 305 292 309 325 333 326
232 235 237 231 232 223 214 207 202 208 210 215 221 227 231 228 235 236 247 260 270 275 284 287 284 284 289 294 291 297 295 303 263 289 307 309 311 335 327 300 315 332 352 3 3
234 235 238 222 222 217 206 204 204 208 213 218 226 235 240 237 239 246 253 260 266 271 274 277 278 282 288 284 283 281 284 296 306 317 320 313 311 322 307 303 334 358 20 29 32
228 227 229 223 211 202 200 202 208 215 215 223 231 236 240 236 237 244 251 251 254 257 262 272 278 281 284 273 273 292 305 305 310 312 312 310 311 317 285 286 111 48 37 39 37
229 224 224 216 210 197 197 208 213 221 223 227 230 239 232 227 229 233 238 242 246 251 262 275 276 280 275 262 275 292 303 306 325 315 315 323 322 319 208 146 122 92 60 35 29
225 219 217 212 207 200 203 214 222 236 239 237 236 238 231 234 233 229 238 248 251 277 281 278 282 275 243 262 269 296 304 310 319 321 314 325 326 148 159 163 142 111 54 21 14
222 218 211 213 207 207 206 214 221 237 252 238 243 241 240 247 239 233 238 247 262 269 276 271 265 277 253 259 283 294 299 307 306 315 322 331 229 171 181 191 184 191 306 346 346
221 218 211 212 210 209 215 218 227 238 268 254 235 237 234 240 249 240 239 240 250 261 260 275 276 266 266 267 281 296 296 297 308 317 314 321 267 217 217 210 218 242 312 339 345
219 215 214 213 211 208 213 215 225 231 293 229 216 218 222 224 239 243 234 233 241 242 240 230 267 273 281 289 290 282 294 305 306 310 302 267 255 229 217 224 230 256 303 327 343
218 215 213 212 210 208 211 213 211 209 255 221 204 214 211 219 221 233 216 214 226 239 246 250 258 268 272 271 291 282 294 312 302 297 268 265 323 237 221 250 235 270 296 326 332
219 216 212 211 209 207 206 202 191 218 225 221 216 213 207 217 213 214 210 211 213 226 250 262 252 255 256 256 271 260 314 315 331 333 228 308 309 225 221 225 212 227 284 306 324
216 217 212 211 205 199 197 195 211 224 216 218 215 209 215 215 211 217 222 222 227 238 251 255 256 238 233 235 240 276 292 231 258 268 289 296 247 236 239 205 180 236 265 311 327
215 214 213 209 206 202 203 200 219 231 217 219 213 214 215 214 218 226 235 241 244 245 232 218 236 219 229 219 236 268 224 253 264 278 300 263 276 250 201 172 193 229 295 321 331
215 213 212 208 207 207 208 215 217 207 209 216 216 227 225 220 218 221 234 256 241 234 228 241 253 246 239 239 253 240 249 227 224 237 270 281 278 228 196 201 221 282 316 325 330
208 209 209 208 208 211 213 217 222 212 213 212 220 232 226 218 228 233 240 237 237 232 226 237 246 244 228 240 242 237 230 230 232 225 196 282 269 275 221 222 235 282 328 328 326
207 210 209 209 210 216 219 221 226 222 219 229 232 235 238 239 249 238 241 237 243 244 245 244 260 245 261 253 239 238 244 245 230 219 220 249 273 272 242 248 272 285 320 318 313
207 209 209 213 216 221 225 228 231 229 227 238 244 252 251 252 243 245 249 251 253 260 254 243 242 258 267 247 245 243 243 239 245 248 245 210 250 208 286 302 285 302 308 307 308
209 209 212 214 222 224 228 234 235 236 240 240 248 250 254 251 247 252 255 253 254 256 250 242 249 256 249 274 251 240 251 239 242 252 250 243 258 260 271 282 288 297 299 300 306
211 216 220 222 220 222 227 231 237 237 240 243 243 245 248 259 258 253 254 255 255 255 247 246 261 268 274 273 271 272 270 264 259 260 256 268 270 276 287 292 289 293 290 294 302
218 218 220 225 223 226 226 231 236 233 237 242 246 251 256 258 255 257 261 256 256 254 250 254 263 274 276 276 273 278 280 275 266 261 261 264 271 283 285 280 275 285 296 302 307
220 222 224 229 226 225 230 235 240 238 239 242 244 245 243 248 258 260 256 256 254 258 258 258 261 269 272 281 284 283 290 267 263 259 258 261 274 265 280 287 291 298 301 305 307